Regional Weather Roundup
Issued by NWS

Home | Current Version | Previous Version | Text Only | Print | Product List | Glossary On
Versions: 1 2 3 4 5 6 7 8 9 10 11 12 13 14 15 16 17 18 19 20 21 22 23 24 25 26 27 28 29 30 31 32 33 34 35 36 37 38 39 40 41 42 43 44 45 46 47 48 49 50
000
ASUS43 KLSX 210307
RWRMO

WEATHER SUMMARY FOR MISSOURI
NATIONAL WEATHER SERVICE SPRINGFIELD MO
900 PM CST THU NOV 20 2014

NOTE: "FAIR" INDICATES FEW OR NO CLOUDS BELOW 12,000 FEET WITH NO
       SIGNIFICANT WEATHER AND/OR OBSTRUCTIONS TO VISIBILITY.
       CURRENT SKY AND/OR WEATHER CONDITIONS ARE NOT AVAILABLE FOR
       CHILLICOTHE AND FARMINGTON.

MOZ001>031-035>038-043-044-053-054-210400-
...NORTHERN AND WESTERN MISSOURI...

CITY           SKY/WX    TMP DP  RH WIND       PRES   REMARKS
KANSAS CTY INT CLEAR     27  18  69 NE8       30.25R WCI  19
KANSAS C DTWN  CLEAR     29  17  61 E6        30.26R WCI  23
LEE`S SUMMIT   CLEAR     28  17  63 E7        30.25R WCI  21
ST JOSEPH      PTCLDY    19  14  81 N5        30.27R WCI  12
CHILLICOTHE      N/A     21  15  78 NE3       30.29R
KIRKSVILLE     CLEAR     18  14  84 NE3       30.28R

$$
MOZ066>068-077>081-088>096-101>105-210400-
...SOUTHWEST MISSOURI...

CITY           SKY/WX    TMP DP  RH WIND       PRES   REMARKS
SPRINGFIELD    CLEAR     37  22  54 E10       30.20R WCI  30
JOPLIN         CLEAR     37  24  59 NE8       30.19R

$$
MOZ032>034-039>042-045>050-055>058-069>072-210400-
...CENTRAL MISSOURI...

CITY           SKY/WX    TMP DP  RH WIND       PRES   REMARKS
COLUMBIA       CLEAR     30  17  58 NE5       30.27R WCI  25
JEFFERSON CITY CLEAR     27  19  72 CALM      30.29R
ROLLA          CLEAR     26  19  74 NE5       30.24R WCI  20
SEDALIA        CLEAR     29  17  61 E6        30.26S WCI  23
WHITEMAN AFB   CLEAR     26  17  68 E5        30.25R WCI  21
WARRENSBURG    CLEAR     27  18  69 NE6       30.26R WCI  20
OSAGE BEACH    CLEAR     32  19  59 NE6       30.25R WCI  26

$$
MOZ051-052-059>065-210400-
...EAST CENTRAL MISSOURI...

CITY           SKY/WX    TMP DP  RH WIND       PRES   REMARKS
ST LOUIS INTL  CLEAR     28  18  66 CALM      30.29R
SPIRIT OF STL  CLEAR     24  19  81 CALM      30.29R
ST CHARLES     CLEAR     25  18  74 CALM      30.30R

$$
MOZ072>076-082>087-097>100-106>115-210400-
...SOUTH CENTRAL AND SOUTHEAST MISSOURI...

CITY           SKY/WX    TMP DP  RH WIND       PRES   REMARKS
CAPE GIRARDEAU CLEAR     29  25  85 NE3       30.28R
FARMINGTON     CLEAR     28  21  74 NE6       30.28R WCI  22
POPLAR BLUFF   CLOUDY    39  31  72 CALM      30.26R
WEST PLAINS    CLEAR     39  21  48 CALM      30.23R

$$


USA.gov is the U.S. government's official web portal to all federal, state and local government web resources and services.